DAL2307 KLAS-KMSP

Flight info

Callsign DAL2307
Flight time N/A
Altitude 35000
Route GIDGT3 TUKRR DCT HBU DCT SNY DCT SSWAN TORGY4
Aircraft A321/M-SDE3FGHIRWY/LB1

Departure

Time 2026-05-04 00:39
Airport Harry Reid International Airport (KLAS)

Arrival

Time N/A
Airport Minneapolis–Saint Paul International Airport / Wold–Chamberlain Field (KMSP)
Time Latitude Longitude Altitude Speed Heading
2026-05-03 23:58 36.07996 -115.14036 2094 ft 0 kts 60°
2026-05-04 00:24 36.07988 -115.14054 2094 ft 4 kts 60°
2026-05-04 00:24 36.07974 -115.14082 2094 ft 3 kts 60°
2026-05-04 00:24 36.07964 -115.14107 2094 ft 4 kts 74°
2026-05-04 00:24 36.07962 -115.14137 2094 ft 4 kts 113°
2026-05-04 00:25 36.07977 -115.14158 2095 ft 4 kts 172°
2026-05-04 00:25 36.08002 -115.14159 2095 ft 2 kts 180°
2026-05-04 00:25 36.08004 -115.14159 2095 ft 0 kts 180°
2026-05-04 00:29 36.07990 -115.14158 2095 ft 6 kts 179°
2026-05-04 00:29 36.07926 -115.14158 2095 ft 12 kts 180°
2026-05-04 00:29 36.07897 -115.14158 2095 ft 0 kts 180°
2026-05-04 00:30 36.07883 -115.14158 2094 ft 7 kts 180°
2026-05-04 00:30 36.07805 -115.14158 2094 ft 15 kts 180°
2026-05-04 00:30 36.07754 -115.14075 2094 ft 14 kts 91°
2026-05-04 00:31 36.07754 -115.13962 2093 ft 14 kts 90°
2026-05-04 00:31 36.07754 -115.13817 2093 ft 18 kts 90°
2026-05-04 00:31 36.07754 -115.13666 2092 ft 17 kts 90°
2026-05-04 00:31 36.07755 -115.13526 2091 ft 16 kts 89°
2026-05-04 00:32 36.07754 -115.13393 2090 ft 15 kts 90°
2026-05-04 00:32 36.07754 -115.13262 2087 ft 15 kts 89°
2026-05-04 00:32 36.07754 -115.13124 2083 ft 17 kts 90°
2026-05-04 00:32 36.07755 -115.12971 2076 ft 19 kts 90°
2026-05-04 00:33 36.07755 -115.12794 2069 ft 22 kts 90°
2026-05-04 00:33 36.07755 -115.12389 2056 ft 24 kts 91°
2026-05-04 00:33 36.07755 -115.12258 2052 ft 12 kts 89°
2026-05-04 00:34 36.07755 -115.12162 2049 ft 9 kts 95°
2026-05-04 00:34 36.07739 -115.12133 2048 ft 0 kts 147°
2026-05-04 00:37 36.07737 -115.12131 2048 ft 2 kts 147°
2026-05-04 00:37 36.07678 -115.12123 2049 ft 15 kts 182°
2026-05-04 00:37 36.07643 -115.12179 2049 ft 0 kts 269°
2026-05-04 00:38 36.07643 -115.12257 2051 ft 32 kts 270°
2026-05-04 00:38 36.07634 -115.12803 2071 ft 91 kts 272°
2026-05-04 00:39 36.07641 -115.13794 2093 ft 138 kts 270°
2026-05-04 00:39 36.07640 -115.15139 2110 ft 174 kts 270°
2026-05-04 00:39 36.07644 -115.16652 2538 ft 175 kts 266°
2026-05-04 00:39 36.07652 -115.18159 3112 ft 176 kts 268°
2026-05-04 00:40 36.07652 -115.18670 3289 ft 176 kts 264°
2026-05-04 00:40 36.07641 -115.21207 3903 ft 184 kts 262°
2026-05-04 00:40 36.07627 -115.22845 4031 ft 197 kts 263°
2026-05-04 00:40 36.07622 -115.24596 4151 ft 209 kts 264°
2026-05-04 00:41 36.07675 -115.26424 4289 ft 221 kts 273°
2026-05-04 00:41 36.08503 -115.28118 4482 ft 248 kts 315°
2026-05-04 00:41 36.10130 -115.29066 4672 ft 270 kts 340°
2026-05-04 00:41 36.11963 -115.29607 5164 ft 276 kts 352°
2026-05-04 00:42 36.13875 -115.29366 5800 ft 280 kts 18°
2026-05-04 00:42 36.15609 -115.28284 6363 ft 286 kts 37°
2026-05-04 00:42 36.16986 -115.26441 6657 ft 298 kts 61°
2026-05-04 00:42 36.17871 -115.24107 7208 ft 301 kts 72°
2026-05-04 00:43 36.18629 -115.21679 7839 ft 303 kts 71°
2026-05-04 00:43 36.19344 -115.19223 8511 ft 303 kts 79°
2026-05-04 00:43 36.19624 -115.16678 9168 ft 300 kts 93°
2026-05-04 00:43 36.19625 -115.14080 9858 ft 301 kts 94°
2026-05-04 00:44 36.19622 -115.11464 10305 ft 312 kts 94°
2026-05-04 00:44 36.19614 -115.08690 10379 ft 333 kts 94°
2026-05-04 00:44 36.19606 -115.05773 10531 ft 352 kts 92°
2026-05-04 00:44 36.19606 -115.02701 10956 ft 361 kts 94°
2026-05-04 00:45 36.19610 -114.99579 11447 ft 367 kts 94°
2026-05-04 00:45 36.19612 -114.96392 11890 ft 373 kts 93°
2026-05-04 00:45 36.19615 -114.93164 12480 ft 377 kts 93°
2026-05-04 00:45 36.19617 -114.89912 13039 ft 381 kts 93°
2026-05-04 00:46 36.19615 -114.86624 13611 ft 384 kts 93°
2026-05-04 00:46 36.19610 -114.83294 14100 ft 388 kts 93°
2026-05-04 00:46 36.19609 -114.81078 14427 ft 391 kts 94°
2026-05-04 00:46 36.19607 -114.77698 14965 ft 393 kts 92°
2026-05-04 00:47 36.19594 -114.73214 15695 ft 395 kts 95°
2026-05-04 00:47 36.19582 -114.69801 16208 ft 398 kts 95°
2026-05-04 00:47 36.19577 -114.66371 16793 ft 398 kts 94°
2026-05-04 00:47 36.19575 -114.62932 17271 ft 402 kts 95°
2026-05-04 00:48 36.19569 -114.59458 17777 ft 404 kts 93°
2026-05-04 00:48 36.19567 -114.57152 18111 ft 405 kts 93°
2026-05-04 00:48 36.19560 -114.53650 18485 ft 410 kts 94°
2026-05-04 00:48 36.19543 -114.50098 18838 ft 415 kts 93°
2026-05-04 00:49 36.19523 -114.46513 19212 ft 418 kts 93°
2026-05-04 00:49 36.19502 -114.41706 19639 ft 425 kts 93°
2026-05-04 00:49 36.19486 -114.38032 20023 ft 428 kts 94°
2026-05-04 00:49 36.19470 -114.34328 20425 ft 432 kts 94°
2026-05-04 00:50 36.19457 -114.31804 20672 ft 435 kts 94°
2026-05-04 00:50 36.19436 -114.28089 21032 ft 440 kts 95°
2026-05-04 00:50 36.19456 -114.24293 21400 ft 445 kts 90°
2026-05-04 00:50 36.19845 -114.20450 21711 ft 453 kts 84°
2026-05-04 00:51 36.20325 -114.16584 22073 ft 457 kts 84°
2026-05-04 00:51 36.20801 -114.12671 22414 ft 462 kts 84°
2026-05-04 00:51 36.21273 -114.08722 22744 ft 466 kts 84°
2026-05-04 00:51 36.21746 -114.04734 23111 ft 470 kts 85°
2026-05-04 00:52 36.22216 -114.00719 23419 ft 473 kts 85°
2026-05-04 00:52 36.22697 -113.96672 23631 ft 477 kts 84°
2026-05-04 00:52 36.23177 -113.92653 23837 ft 480 kts 84°
2026-05-04 00:52 36.23662 -113.88542 24110 ft 484 kts 84°
2026-05-04 00:53 36.24142 -113.84403 24404 ft 488 kts 85°
2026-05-04 00:53 36.24624 -113.80227 24688 ft 491 kts 84°
2026-05-04 00:53 36.25107 -113.76035 24977 ft 494 kts 84°
2026-05-04 00:53 36.25594 -113.71796 25289 ft 498 kts 84°
2026-05-04 00:54 36.26084 -113.67537 25558 ft 502 kts 84°
2026-05-04 00:54 36.26581 -113.63244 25801 ft 505 kts 84°
2026-05-04 00:54 36.27082 -113.58922 26076 ft 508 kts 84°
2026-05-04 00:54 36.27578 -113.54628 26333 ft 512 kts 84°
2026-05-04 00:55 36.28082 -113.50254 26577 ft 515 kts 84°
2026-05-04 00:55 36.28588 -113.45847 26866 ft 518 kts 83°
2026-05-04 00:55 36.29094 -113.41414 27111 ft 521 kts 84°
2026-05-04 00:55 36.29599 -113.36958 27337 ft 524 kts 83°
2026-05-04 00:56 36.30111 -113.32479 27536 ft 525 kts 83°
2026-05-04 00:56 36.30613 -113.27993 27728 ft 526 kts 83°
2026-05-04 00:56 36.31266 -113.23523 27973 ft 529 kts 76°
2026-05-04 00:56 36.32388 -113.19165 28215 ft 532 kts 67°
2026-05-04 00:57 36.33861 -113.14959 28412 ft 535 kts 65°
2026-05-04 00:57 36.35352 -113.10770 28582 ft 539 kts 65°
2026-05-04 00:57 36.36867 -113.06502 28820 ft 542 kts 65°
2026-05-04 00:57 36.38381 -113.02212 29077 ft 544 kts 65°
2026-05-04 00:58 36.39896 -112.97900 29292 ft 547 kts 65°
2026-05-04 00:58 36.41414 -112.93557 29497 ft 550 kts 65°
2026-05-04 00:58 36.42936 -112.89194 29745 ft 551 kts 65°
2026-05-04 00:58 36.44460 -112.84820 30039 ft 552 kts 64°
2026-05-04 00:59 36.45982 -112.80449 30340 ft 551 kts 64°
2026-05-04 00:59 36.47501 -112.76091 30640 ft 550 kts 64°
2026-05-04 00:59 36.49003 -112.71787 30960 ft 549 kts 64°
2026-05-04 00:59 36.50517 -112.67443 31283 ft 547 kts 64°
2026-05-04 01:00 36.52025 -112.63099 31562 ft 547 kts 64°
2026-05-04 01:00 36.53522 -112.58775 31911 ft 545 kts 64°
2026-05-04 01:00 36.55023 -112.54444 32295 ft 544 kts 64°
2026-05-04 01:00 36.56521 -112.50119 32616 ft 544 kts 64°
2026-05-04 01:01 36.58016 -112.45799 32913 ft 543 kts 64°
2026-05-04 01:01 36.59504 -112.41484 33312 ft 541 kts 63°
2026-05-04 01:01 36.60977 -112.37191 33691 ft 539 kts 63°
2026-05-04 01:01 36.62425 -112.32959 34004 ft 537 kts 63°
2026-05-04 01:02 36.63886 -112.28688 34289 ft 537 kts 63°
2026-05-04 01:02 36.65349 -112.24418 34518 ft 536 kts 63°
2026-05-04 01:02 36.66815 -112.20147 34763 ft 536 kts 63°
2026-05-04 01:02 36.68284 -112.15874 34882 ft 536 kts 63°
2026-05-04 01:03 36.69745 -112.11616 34929 ft 533 kts 63°
2026-05-04 01:03 36.72638 -112.03121 34883 ft 533 kts 64°
2026-05-04 01:04 36.75514 -111.94614 34885 ft 532 kts 64°
2026-05-04 01:04 36.78374 -111.86165 34853 ft 532 kts 64°
2026-05-04 01:05 36.81256 -111.77646 34814 ft 533 kts 64°
2026-05-04 01:05 36.84129 -111.69123 34818 ft 533 kts 63°
2026-05-04 01:06 36.87026 -111.60636 34822 ft 532 kts 63°
2026-05-04 01:06 36.90141 -111.52308 34938 ft 533 kts 61°
2026-05-04 01:07 36.93364 -111.43957 34933 ft 534 kts 60°
2026-05-04 01:07 36.96519 -111.35546 34932 ft 535 kts 62°
2026-05-04 01:08 36.99627 -111.27095 34903 ft 535 kts 62°
2026-05-04 01:08 37.02727 -111.18618 34868 ft 535 kts 62°